CW0210 Weather Reports


Display with metric or nautical units.
time (UTC)temp
F
wind
direction
speed
MPH
gust
MPH
rain 1hr
in
rain 24hr
in
rain mn
in
humidity
%
barometer
mb
20191014074527 48 294 0.0 0.0 0.00 0.00 0.00 97 1013.6
20191014073048 48 294 0.0 0.0 0.00 0.00 0.00 97 1013.9
20191014071542 48 294 0.0 0.0 0.00 0.00 0.00 97 1014.2
20191014070037 49 294 0.0 0.0 0.00 0.00 0.00 97 1014.1
20191014064606 49 294 0.0 0.0 0.00 0.00 0.00 97 1014.0
20191014063050 49 294 0.0 0.0 0.00 0.00 0.00 97 1014.6
20191014061521 49 294 0.0 0.0 0.00 0.00 0.00 97 1014.7
20191014060030 49 294 0.0 0.0 0.00 0.00 0.00 97 1015.0
20191014054519 49 294 0.0 0.0 0.00 0.00 0.00 97 1014.7
20191014053035 49 294 0.0 0.0 0.00 0.00 0.00 97 1014.9
20191014051539 49 294 0.0 0.0 0.00 0.00 0.00 97 1015.3
20191014050018 49 294 0.0 0.0 0.00 0.00 0.00 97 1015.0
20191014044514 49 294 0.0 0.0 0.00 0.00 0.00 96 1014.8
20191014043023 49 294 0.0 0.0 0.00 0.00 0.00 96 1014.8
20191014041507 49 294 0.0 0.0 0.00 0.00 0.00 96 1014.6
20191014040003 49 294 0.0 0.0 0.00 0.00 0.00 96 1014.7
20191014034513 50 294 0.0 0.0 0.00 0.00 0.00 96 1014.6
20191014033013 50 294 0.0 0.0 0.00 0.00 0.00 96 1014.6
20191014031501 51 294 0.0 0.0 0.00 0.00 0.00 96 1014.5
20191014030000 51 294 0.0 0.0 0.00 0.00 0.00 96 1014.7
20191014024707 52 294 0.0 0.0 0.00 0.00 0.00 95 1014.8
20191014023151 52 294 0.0 0.0 0.00 0.00 0.00 95 1015.2
20191014021711 53 294 0.0 0.0 0.00 0.00 0.00 95 1015.1
20191014020203 53 294 0.0 0.0 0.00 0.00 0.00 95 1015.4
20191014014705 54 294 0.0 0.0 0.00 0.00 0.00 95 1015.1
20191014013215 54 294 0.0 0.0 0.00 0.00 0.00 95 1014.9
20191014011644 54 294 0.0 0.0 0.00 0.00 0.00 95 1014.9
20191014010210 55 294 0.0 0.0 0.00 0.00 0.00 95 1014.7
20191014004709 55 294 0.0 0.0 0.00 0.00 0.00 95 1014.7
20191014003142 55 294 0.0 0.0 0.00 0.00 0.00 94 1014.8
20191014001612 55 294 0.0 0.0 0.00 0.00 0.00 94 1014.8
20191014000153 55 294 0.0 0.0 0.00 0.00 0.00 93 1014.8
20191013234825 55 294 0.0 0.0 0.00 0.00 0.00 93 1014.8
20191013233243 56 294 0.0 0.0 0.00 0.00 0.00 92 1014.8
20191013231626 56 294 0.0 0.0 0.00 0.00 0.00 91 1014.9
20191013230210 57 294 0.0 0.0 0.00 0.00 0.00 90 1015.0
20191013224723 58 294 0.0 0.0 0.00 0.00 0.00 89 1014.9
20191013223222 58 294 0.0 0.0 0.00 0.00 0.00 89 1014.8
20191013221737 59 294 0.0 0.0 0.00 0.00 0.00 88 1014.9
20191013220208 60 294 0.0 0.0 0.00 0.00 0.00 86 1014.9
20191013214719 60 294 0.0 0.0 0.00 0.00 0.00 85 1014.8
20191013213132 61 294 0.0 0.0 0.00 0.00 0.00 83 1014.7
20191013211624 62 294 0.0 0.0 0.00 0.00 0.00 81 1014.7
20191013210126 63 294 0.0 0.0 0.00 0.00 0.00 79 1014.6
20191013204620 65 294 0.0 0.0 0.00 0.00 0.00 77 1014.4
20191013203145 66 294 0.0 0.0 0.00 0.00 0.00 74 1014.4
20191013200158 68 294 0.0 0.0 0.00 0.00 0.00 69 1014.5
20191013194747 68 294 0.0 0.0 0.00 0.00 0.00 69 1014.4
20191013193158 69 294 0.0 0.0 0.00 0.00 0.00 66 1014.4
20191013191908 70 294 0.0 0.0 0.00 0.00 0.00 59 1014.5
20191013190119 69 294 0.0 0.0 0.00 0.00 0.00 60 1014.7
20191013184618 70 305 0.0 0.0 0.00 0.00 0.00 61 1014.6
20191013183229 69 305 0.0 0.0 0.00 0.00 0.00 63 1014.7
20191013181605 68 282 0.0 0.0 0.00 0.00 0.00 65 1014.8
20191013180115 69 282 0.0 0.0 0.00 0.00 0.00 66 1014.9
20191013174609 69 283 0.0 0.0 0.00 0.00 0.00 67 1015.1
20191013173051 67 312 1.0 0.0 0.00 0.00 0.00 67 1015.2
20191013171608 66 252 0.0 0.0 0.00 0.00 0.00 72 1015.0
20191013170054 66 281 1.0 0.0 0.00 0.00 0.00 70 1015.2
20191013164623 65 242 0.0 0.0 0.00 0.00 0.00 71 1015.3
20191013163059 64 291 0.0 0.0 0.00 0.00 0.00 73 1015.3
20191013161536 63 301 1.0 0.0 0.00 0.00 0.00 74 1015.6
20191013160105 63 300 0.0 0.0 0.00 0.00 0.00 76 1015.7
20191013154525 62 273 0.0 0.0 0.00 0.00 0.00 77 1015.6
20191013153018 61 311 2.0 0.0 0.00 0.00 0.00 78 1015.6
20191013151526 60 261 1.0 0.0 0.00 0.00 0.00 79 1015.6
20191013150026 60 283 0.0 0.0 0.00 0.00 0.00 81 1015.6
20191013144507 59 277 1.0 0.0 0.00 0.00 0.00 83 1015.9
20191013143007 59 284 2.0 0.0 0.00 0.00 0.00 84 1015.7
20191013141507 58 267 1.0 0.0 0.00 0.00 0.00 88 1015.6
20191013140331 57 38 0.0 0.0 0.00 0.00 0.00 94 1015.4
20191013134708 55 282 1.0 0.0 0.00 0.00 0.00 98 1015.4
20191013133107 54 304 0.0 0.0 0.00 0.00 0.00 99 1015.4
20191013131643 53 18 0.0 0.0 0.00 0.00 0.00 99 1015.3
20191013130147 53 43 0.0 0.0 0.00 0.00 0.00 99 1015.2
20191013124609 52 43 0.0 0.0 0.00 0.00 0.00 99 1015.4
20191013123058 51 43 0.0 0.0 0.00 0.00 0.00 98 1015.2
20191013121703 50 43 0.0 0.0 0.00 0.00 0.00 98 1015.0
20191013120112 49 43 0.0 0.0 0.00 0.00 0.00 98 1014.8
20191013114614 49 43 0.0 0.0 0.00 0.00 0.00 98 1014.6
20191013113042 49 43 0.0 0.0 0.00 0.00 0.00 98 1014.4
20191013111626 49 43 0.0 0.0 0.00 0.00 0.00 98 1014.3
20191013110113 49 43 0.0 0.0 0.00 0.00 0.00 98 1014.1
20191013104601 49 43 0.0 0.0 0.00 0.00 0.00 98 1013.8
20191013103211 50 43 0.0 0.0 0.00 0.00 0.00 98 1013.7
20191013101528 50 43 0.0 0.0 0.00 0.00 0.00 98 1013.5
20191013100047 50 43 0.0 0.0 0.00 0.00 0.00 98 1013.4
20191013094529 50 43 0.0 0.0 0.00 0.00 0.00 98 1013.4
20191013093023 50 43 0.0 0.0 0.00 0.00 0.00 98 1013.2
20191013091530 50 43 0.0 0.0 0.00 0.00 0.00 98 1013.2
20191013090031 50 52 0.0 0.0 0.00 0.00 0.00 98 1013.2
20191013084537 50 53 0.0 0.0 0.00 0.00 0.00 98 1012.9
20191013083055 50 52 0.0 0.0 0.00 0.00 0.00 98 1012.9
20191013081541 49 53 0.0 0.0 0.00 0.00 0.00 98 1012.9
20191013080025 49 52 0.0 0.0 0.00 0.00 0.00 98 1012.8